XW-2F
1 40910U 15049M 24060.61353098 .00235920 00000-0 13310-2 0 9991
2 40910 97.4318 87.9890 0002837 198.2235 161.8931 15.78502254468791
XW-2B
1 40911U 15049N 24060.82590596 .00026739 00000-0 67231-3 0 9999
2 40911 97.4817 77.1897 0006596 337.0618 23.0332 15.39911840467849
IO-86
1 40931U 15052B 24006.28856983 .00001263 00000-0 84248-4 0 9993
2 40931 6.0004 76.3799 0013541 291.8204 68.0484 14.77555377447321
ChubuSat-2
1 41338U 16012B 24060.56241003 .00004962 00000-0 31914-3 0 9994
2 41338 31.0031 9.1040 0012226 229.2236 130.7341 15.06753543441199
ChubuSat-3
1 41339U 16012C 24060.53606191 .00004364 00000-0 28314-3 0 9991
2 41339 31.0097 7.1727 0012163 234.5115 125.4387 15.06340992441176
Horyu-4
1 41340U 16012D 24060.41398932 .00009453 00000-0 51322-3 0 9990
2 41340 31.0035 322.7272 0011480 309.0461 50.9156 15.13175585441644
e-st@r-II
1 41459U 16025D 24060.90940417 .00114783 00000-0 12227-2 0 9993
2 41459 98.1437 297.8784 0051628 265.1847 94.3512 15.61916604432616
Lapan A3
1 41603U 16040E 24060.82565870 .00003049 00000-0 12744-3 0 9995
2 41603 97.1506 79.4866 0013831 121.3008 238.9586 15.24243016426714
Pratham
1 41783U 16059A 24060.78590974 .00000975 00000-0 19111-3 0 9992
2 41783 97.8471 85.1852 0032772 7.0991 353.0670 14.64555596396672
CAS-2T
1 41847U 16066G 24060.43455419 .00002209 00000-0 33050-3 0 9997
2 41847 98.4713 132.5322 0356540 144.6071 217.9355 14.40786208383839
CAS-4B
1 42759U 17034B 24060.85418072 .00011457 00000-0 47271-3 0 9991
2 42759 43.0127 116.8135 0011766 344.3062 15.7423 15.23992566370857
CAS-4A
1 42761U 17034D 24060.86407047 .00011311 00000-0 46561-3 0 9995
2 42761 43.0101 115.1864 0011474 347.0787 12.9768 15.24085473370866
NIUSat
1 42766U 17036B 24060.61066317 .00124006 00000-0 10021-2 0 9993
2 42766 97.1174 94.7972 0004365 201.7396 158.3682 15.70446261372506
Aalto 1
1 42775U 17036L 24060.59616783 .00035818 00000-0 60666-3 0 9991
2 42775 97.1224 90.2337 0004827 228.6158 131.4681 15.51451223372194
URSA MAIOR
1 42776U 17036M 24060.84781725 .00059296 00000-0 78442-3 0 9996
2 42776 97.1209 93.1697 0004565 212.0229 148.0750 15.58128494372395
Max Valier Sat
1 42778U 17036P 24060.61585987 .00050086 00000-0 63997-3 0 9992
2 42778 97.1221 96.9987 0004258 214.4599 145.6383 15.59094267372531
D-SAT
1 42794U 17036AF 24060.52193361 .00004273 00000-0 31600-3 0 9994
2 42794 97.4920 46.4487 0110958 153.2376 207.4633 14.98843761364462
TechnoSat
1 42829U 17042E 24060.76345814 .00002568 00000-0 23612-3 0 9997
2 42829 97.3818 247.9970 0013976 79.7679 280.5118 14.95524739360960
AO-91
1 43017U 17073E 24060.61554852 .00008971 00000-0 58373-3 0 9995
2 43017 97.5950 300.0418 0216819 296.2228 61.6847 14.90849843339474
TianYi 2
1 43155U 18008A 24060.89238178 .00041635 00000-0 96009-3 0 9999
2 43155 97.2567 114.2445 0009830 109.7086 250.5223 15.42409088338125
Zhou Enlai
1 43156U 18008B 24060.83264959 .00051626 00000-0 10549-2 0 9995
2 43156 97.2606 115.0710 0007521 111.2456 248.9597 15.45965323338080
TianYi 6
1 43158U 18008D 24060.65159090 .00026517 00000-0 75200-3 0 9993
2 43158 97.2700 109.8428 0009323 118.3233 241.8953 15.36168418337758
S-Net D
1 43186U 18014G 24060.46089461 .00004454 00000-0 33428-3 0 9996
2 43186 97.6020 324.2806 0011448 26.3171 333.8634 15.03083416332167
S-Net B
1 43187U 18014H 24060.46271506 .00004498 00000-0 33754-3 0 9990
2 43187 97.6025 324.2236 0012071 20.4778 339.6928 15.03077977332166
S-Net A
1 43188U 18014J 24060.26241280 .00004475 00000-0 33581-3 0 9998
2 43188 97.6031 324.1314 0012000 22.1293 338.0448 15.03082668332133
S-Net C
1 43189U 18014K 24060.26530462 .00004489 00000-0 33678-3 0 9994
2 43189 97.6045 324.0592 0013484 12.7395 347.4168 15.03078914330681
CubeBel-1
1 43666U 18083E 24060.72464342 .00984123 50048-3 16583-2 0 9991
2 43666 97.3298 104.7073 0005486 231.3761 128.7028 16.02851262297215
Changshagaoxin
1 43669U 18083H 24060.78800477 .00096834 00000-0 10666-2 0 9992
2 43669 97.3458 95.7475 0001836 233.5736 126.5353 15.62810770296728
Ten-Koh
1 43677U 18084G 24060.41487906 .00003106 00000-0 28941-3 0 9996
2 43677 98.0445 210.9455 0014684 21.4494 338.7338 14.94961767290462
PO-101
1 43678U 18084H 24060.84487949 .00002441 00000-0 23070-3 0 9990
2 43678 98.0550 215.8076 0009927 36.0045 324.1842 14.94647500290736
QO-100
1 43700U 18090A 24060.83099779 .00000155 00000-0 00000+0 0 9996
2 43700 0.0189 134.2129 0001101 221.5474 128.3041 1.00272764 19518
MinXSS-2
1 43758U 18099A 24060.71370652 .00007347 00000-0 50351-3 0 9995
2 43758 97.5686 124.9007 0017154 332.4422 27.5894 15.06219461286445
AO-95
1 43770U 18099N 24060.11039810 .00006246 00000-0 45969-3 0 9997
2 43770 97.5612 120.3865 0014663 17.4903 342.6824 15.03633605286166
RANGE-B
1 43772U 18099Q 24060.65521882 .00008838 00000-0 59821-3 0 9994
2 43772 97.5380 124.1120 0004670 285.4165 74.6546 15.06730221286360
RANGE-A
1 43773U 18099R 24060.62289929 .00003840 00000-0 30465-3 0 9996
2 43773 97.5214 117.3514 0018343 350.9317 9.1574 15.00966193286140
MOVE-II
1 43780U 18099Y 24060.12192398 .00012044 00000-0 72260-3 0 9997
2 43780 97.5357 124.4634 0007199 1.8826 358.2430 15.11065896286435
SNUSat 2
1 43782U 18099AA 24060.13798722 .00004176 00000-0 31422-3 0 9995
2 43782 97.5283 120.1384 0014284 318.9843 41.0308 15.02988068286182
SnugLite
1 43784U 18099AC 24060.69824313 .00005884 00000-0 43053-3 0 9994
2 43784 97.5116 120.1051 0003959 335.9797 24.1244 15.03951141286324
ITASat 1
1 43786U 18099AE 24060.43441292 .00004818 00000-0 36598-3 0 9991
2 43786 97.5272 120.8332 0017553 6.1756 353.9683 15.02509247286230
EAGLET 1
1 43790U 18099AJ 24060.66023819 .00003720 00000-0 29186-3 0 9998
2 43790 97.5350 121.4928 0014990 351.0681 9.0275 15.01454401285988
ESEO
1 43792U 18099AL 24060.61968240 .00001881 00000-0 16004-3 0 9992
2 43792 97.5315 118.9309 0011730 339.9601 20.1160 14.98938202285934
CSIM
1 43793U 18099AM 24060.43673402 .00010450 00000-0 62616-3 0 9998
2 43793 97.5426 126.4041 0013122 331.6215 28.4299 15.11101556286331
JO-97
1 43803U 18099AX 24060.67415176 .00005517 00000-0 39338-3 0 9991
2 43803 97.5346 121.8856 0009384 318.7608 41.2908 15.04929670286364
Suomi 100
1 43804U 18099AY 24060.67790651 .00005050 00000-0 36541-3 0 9991
2 43804 97.5424 121.6964 0015360 315.8826 44.1174 15.04357945286357
CHOMPTT
1 43855U 18104G 24060.83779561 .00107447 00000-0 94727-3 0 9992
2 43855 85.0210 347.8942 0010991 75.3441 284.9044 15.68301221290500
ISAT
1 43879U 18111D 24060.25627320 .00008359 00000-0 55458-3 0 9997
2 43879 97.6286 326.6950 0014508 19.7863 340.3924 15.07419418282999
UWE-4
1 43880U 18111E 24060.25215081 .00007145 00000-0 48229-3 0 9996
2 43880 97.6199 326.9584 0018430 26.5695 333.6473 15.06781304283010
Sparrow
1 43881U 18111F 24060.46096308 .00008441 00000-0 55355-3 0 9997
2 43881 97.6358 328.6065 0012525 57.8346 302.4096 15.07865918283087
AISTechSat 3
1 44103U 19018AB 24060.76886935 .00143106 00000-0 97082-3 0 9999
2 44103 97.2020 126.2656 0002385 44.9912 315.1546 15.74546405274480
